Time,TemperatureF,DewpointF,PressureIn,WindDirection,WindDirectionDegrees,WindSpeedMPH,WindSpeedGustMPH,Humidity,HourlyPrecipIn,Conditions,Clouds,dailyrainin,SolarRadiationWatts/m^2,SoftwareType,DateUTC
2013-11-10 00:00:00,44.5,32.7,30.11,SSW,202,6.0,7.0,63,0.00,,---,0.00,0.00,VWS V14.01,2013-11-10 06:00:00,
2013-11-10 00:05:00,44.5,33.1,30.11,NE,45,7.0,8.0,64,0.00,,---,0.00,0.00,VWS V14.01,2013-11-10 06:05:00,
2013-11-10 00:10:00,44.9,33.1,30.11,ENE,68,6.0,7.0,63,0.00,,---,0.00,0.00,VWS V14.01,2013-11-10 06:10:00,
2013-11-10 00:15:00,44.8,33.0,30.11,ENE,68,6.0,7.0,63,0.00,,---,0.00,0.00,VWS V14.01,2013-11-10 06:15:00,
2013-11-10 00:20:00,44.6,33.2,30.11,ENE,68,6.0,7.0,64,0.00,,---,0.00,0.00,VWS V14.01,2013-11-10 06:20:00,
2013-11-10 00:25:00,44.3,32.9,30.11,ENE,68,6.0,7.0,64,0.00,,---,0.00,0.00,VWS V14.01,2013-11-10 06:25:00,
2013-11-10 00:30:00,44.2,32.8,30.11,ENE,68,6.0,7.0,64,0.00,,---,0.00,0.00,VWS V14.01,2013-11-10 06:30:00,
2013-11-10 00:35:00,44.1,33.1,30.11,ENE,68,6.0,7.0,65,0.00,,---,0.00,0.00,VWS V14.01,2013-11-10 06:35:00,
2013-11-10 00:40:00,43.9,32.9,30.11,East,90,6.0,6.0,65,0.00,,---,0.00,0.00,VWS V14.01,2013-11-10 06:40:00,
2013-11-10 00:45:00,43.6,33.0,30.11,ESE,112,6.0,7.0,66,0.00,,---,0.00,0.00,VWS V14.01,2013-11-10 06:45:00,
2013-11-10 00:50:00,43.5,32.9,30.11,NE,45,6.0,6.0,66,0.00,,---,0.00,0.00,VWS V14.01,2013-11-10 06:50:00,
2013-11-10 00:55:00,43.6,33.0,30.11,ENE,68,6.0,7.0,66,0.00,,---,0.00,0.00,VWS V14.01,2013-11-10 06:55:00,
2013-11-10 01:00:00,43.5,32.9,30.11,ENE,68,5.0,7.0,66,0.00,,---,0.00,0.00,VWS V14.01,2013-11-10 07:00:00,
2013-11-10 01:05:00,43.3,33.1,30.11,ENE,68,6.0,7.0,67,0.00,,---,0.00,0.00,VWS V14.01,2013-11-10 07:05:00,
2013-11-10 01:10:00,43.2,33.0,30.11,ENE,68,4.0,6.0,67,0.00,,---,0.00,0.00,VWS V14.01,2013-11-10 07:10:00,
2013-11-10 01:15:00,42.9,32.7,30.11,ENE,68,4.0,7.0,67,0.00,,---,0.00,0.00,VWS V14.01,2013-11-10 07:15:00,
2013-11-10 01:20:00,42.6,32.8,30.11,ENE,68,5.0,6.0,68,0.00,,---,0.00,0.00,VWS V14.01,2013-11-10 07:20:00,
2013-11-10 01:25:00,42.6,32.8,30.11,ENE,68,6.0,7.0,68,0.00,,---,0.00,0.00,VWS V14.01,2013-11-10 07:25:00,
2013-11-10 01:30:00,42.6,32.8,30.11,ENE,68,5.0,7.0,68,0.00,,---,0.00,0.00,VWS V14.01,2013-11-10 07:30:00,
2013-11-10 01:35:00,42.8,32.6,30.11,NE,45,5.0,6.0,67,0.00,,---,0.00,0.00,VWS V14.01,2013-11-10 07:35:00,
2013-11-10 01:40:00,42.8,32.6,30.11,ENE,68,5.0,7.0,67,0.00,,---,0.00,0.00,VWS V14.01,2013-11-10 07:40:00,
2013-11-10 01:45:00,42.6,32.4,30.11,ENE,68,5.0,6.0,67,0.00,,---,0.00,0.00,VWS V14.01,2013-11-10 07:45:00,
2013-11-10 01:50:00,42.5,32.7,30.11,NE,45,6.0,7.0,68,0.00,,---,0.00,0.00,VWS V14.01,2013-11-10 07:50:00,
2013-11-10 01:55:00,42.1,32.7,30.11,NE,45,7.0,8.0,69,0.00,,---,0.00,0.00,VWS V14.01,2013-11-10 07:55:00,
2013-11-10 02:00:00,41.8,33.1,30.11,NE,45,6.0,8.0,71,0.00,,---,0.00,0.00,VWS V14.01,2013-11-10 08:00:00,
2013-11-10 02:05:00,41.9,32.8,30.11,NE,45,6.0,8.0,70,0.00,,---,0.00,0.00,VWS V14.01,2013-11-10 08:05:00,
2013-11-10 02:10:00,41.9,32.8,30.11,ENE,68,6.0,8.0,70,0.00,,---,0.00,0.00,VWS V14.01,2013-11-10 08:10:00,
2013-11-10 02:15:00,41.9,32.8,30.12,NE,45,8.0,10.0,70,0.00,,---,0.00,0.00,VWS V14.01,2013-11-10 08:15:00,
2013-11-10 02:20:00,41.8,32.8,30.12,NE,45,8.0,10.0,70,0.00,,---,0.00,0.00,VWS V14.01,2013-11-10 08:20:00,
2013-11-10 02:25:00,41.8,32.8,30.12,NE,45,9.0,10.0,70,0.00,,---,0.00,0.00,VWS V14.01,2013-11-10 08:25:00,
2013-11-10 02:30:00,41.6,32.6,30.11,ENE,68,9.0,10.0,70,0.00,,---,0.00,0.00,VWS V14.01,2013-11-10 08:30:00,
2013-11-10 02:35:00,41.3,32.3,30.11,NE,45,8.0,9.0,70,0.00,,---,0.00,0.00,VWS V14.01,2013-11-10 08:35:00,
2013-11-10 02:40:00,41.2,32.5,30.11,NE,45,8.0,9.0,71,0.00,,---,0.00,0.00,VWS V14.01,2013-11-10 08:40:00,
2013-11-10 02:45:00,41.1,32.8,30.12,NE,45,8.0,10.0,72,0.00,,---,0.00,0.00,VWS V14.01,2013-11-10 08:45:00,
2013-11-10 02:50:00,40.6,32.6,30.12,NE,45,10.0,12.0,73,0.00,,---,0.00,0.00,VWS V14.01,2013-11-10 08:50:00,
2013-11-10 02:55:00,40.3,32.3,30.12,NE,45,11.0,13.0,73,0.00,,---,0.00,0.00,VWS V14.01,2013-11-10 08:55:00,
2013-11-10 03:00:00,40.3,33.0,30.13,NE,45,10.0,12.0,75,0.00,,---,0.00,0.00,VWS V14.01,2013-11-10 09:00:00,
2013-11-10 03:05:00,40.1,32.8,30.13,NE,45,8.0,11.0,75,0.00,,---,0.00,0.00,VWS V14.01,2013-11-10 09:05:00,
2013-11-10 03:10:00,39.8,32.5,30.13,NE,45,7.0,8.0,75,0.00,,---,0.00,0.00,VWS V14.01,2013-11-10 09:10:00,
2013-11-10 03:15:00,39.6,32.7,30.13,NE,45,7.0,10.0,76,0.00,,---,0.00,0.00,VWS V14.01,2013-11-10 09:15:00,
2013-11-10 03:20:00,39.5,32.9,30.13,NE,45,8.0,10.0,77,0.00,,---,0.00,0.00,VWS V14.01,2013-11-10 09:20:00,
2013-11-10 03:25:00,39.3,32.7,30.13,NE,45,8.0,10.0,77,0.00,,---,0.00,0.00,VWS V14.01,2013-11-10 09:25:00,
2013-11-10 03:30:00,39.3,32.7,30.13,NE,45,8.0,10.0,77,0.00,,---,0.00,0.00,VWS V14.01,2013-11-10 09:30:00,
2013-11-10 03:35:00,39.5,32.9,30.13,ENE,68,8.0,11.0,77,0.00,,---,0.00,0.00,VWS V14.01,2013-11-10 09:35:00,
2013-11-10 03:40:00,39.5,32.9,30.13,ENE,68,8.0,10.0,77,0.00,,---,0.00,0.00,VWS V14.01,2013-11-10 09:40:00,
2013-11-10 03:45:00,39.3,32.7,30.13,ENE,68,7.0,10.0,77,0.00,,---,0.00,0.00,VWS V14.01,2013-11-10 09:45:00,
2013-11-10 03:50:00,39.3,33.0,30.13,ENE,68,7.0,10.0,78,0.00,,---,0.00,0.00,VWS V14.01,2013-11-10 09:50:00,
2013-11-10 03:55:00,39.3,33.0,30.13,ENE,68,7.0,8.0,78,0.00,,---,0.00,0.00,VWS V14.01,2013-11-10 09:55:00,
2013-11-10 04:00:00,39.2,32.9,30.13,ENE,68,7.0,8.0,78,0.00,,---,0.00,0.00,VWS V14.01,2013-11-10 10:00:00,
2013-11-10 04:05:00,39.1,32.8,30.13,ENE,68,7.0,10.0,78,0.00,,---,0.00,0.00,VWS V14.01,2013-11-10 10:05:00,
2013-11-10 04:10:00,38.9,32.6,30.13,ENE,68,8.0,10.0,78,0.00,,---,0.00,0.00,VWS V14.01,2013-11-10 10:10:00,
2013-11-10 04:15:00,38.8,32.9,30.15,ENE,68,8.0,10.0,79,0.00,,---,0.00,0.00,VWS V14.01,2013-11-10 10:15:00,
2013-11-10 04:20:00,38.8,32.5,30.15,ENE,68,8.0,10.0,78,0.00,,---,0.00,0.00,VWS V14.01,2013-11-10 10:20:00,
2013-11-10 04:25:00,39.1,32.8,30.15,ENE,68,8.0,10.0,78,0.00,,---,0.00,0.00,VWS V14.01,2013-11-10 10:25:00,
2013-11-10 04:30:00,39.2,32.9,30.15,ENE,68,8.0,10.0,78,0.00,,---,0.00,0.00,VWS V14.01,2013-11-10 10:30:00,
2013-11-10 04:35:00,39.5,32.9,30.15,ENE,68,9.0,11.0,77,0.00,,---,0.00,0.00,VWS V14.01,2013-11-10 10:35:00,
2013-11-10 04:40:00,39.8,32.9,30.15,ENE,68,8.0,10.0,76,0.00,,---,0.00,0.00,VWS V14.01,2013-11-10 10:40:00,
2013-11-10 04:45:00,39.8,32.9,30.15,ENE,68,8.0,10.0,76,0.00,,---,0.00,0.00,VWS V14.01,2013-11-10 10:45:00,
2013-11-10 04:50:00,39.9,33.0,30.15,ENE,68,8.0,11.0,76,0.00,,---,0.00,0.00,VWS V14.01,2013-11-10 10:50:00,
2013-11-10 04:55:00,40.1,32.8,30.15,ENE,68,8.0,10.0,75,0.00,,---,0.00,0.00,VWS V14.01,2013-11-10 10:55:00,
2013-11-10 05:00:00,39.9,32.6,30.15,East,90,7.0,9.0,75,0.00,,---,0.00,0.00,VWS V14.01,2013-11-10 11:00:00,
2013-11-10 05:05:00,39.8,32.9,30.15,East,90,7.0,8.0,76,0.00,,---,0.00,0.00,VWS V14.01,2013-11-10 11:05:00,
2013-11-10 05:10:00,39.6,32.7,30.15,North,0,7.0,8.0,76,0.00,,---,0.00,0.00,VWS V14.01,2013-11-10 11:10:00,
2013-11-10 05:15:00,39.6,32.7,30.16,ENE,68,7.0,8.0,76,0.00,,---,0.00,0.00,VWS V14.01,2013-11-10 11:15:00,
2013-11-10 05:20:00,39.5,32.6,30.16,ENE,68,7.0,8.0,76,0.00,,---,0.00,0.00,VWS V14.01,2013-11-10 11:20:00,
2013-11-10 05:25:00,39.2,32.6,30.16,East,90,6.0,8.0,77,0.00,,---,0.00,0.00,VWS V14.01,2013-11-10 11:25:00,
2013-11-10 05:30:00,39.3,32.7,30.16,ESE,112,6.0,7.0,77,0.00,,---,0.00,0.00,VWS V14.01,2013-11-10 11:30:00,
2013-11-10 05:35:00,39.5,32.6,30.16,East,90,7.0,12.0,76,0.00,,---,0.00,0.00,VWS V14.01,2013-11-10 11:35:00,
2013-11-10 05:40:00,39.5,32.6,30.16,East,90,6.0,7.0,76,0.00,,---,0.00,0.00,VWS V14.01,2013-11-10 11:40:00,
2013-11-10 05:45:00,39.5,32.2,30.17,East,90,6.0,8.0,75,0.00,,---,0.00,0.00,VWS V14.01,2013-11-10 11:45:00,
2013-11-10 05:50:00,39.3,32.0,30.17,East,90,7.0,8.0,75,0.00,,---,0.00,0.00,VWS V14.01,2013-11-10 11:50:00,
2013-11-10 05:55:00,39.3,32.0,30.17,North,0,7.0,8.0,75,0.00,,---,0.00,0.00,VWS V14.01,2013-11-10 11:55:00,
2013-11-10 06:00:00,39.2,32.0,30.17,North,0,6.0,7.0,75,0.00,,---,0.00,0.00,VWS V14.01,2013-11-10 12:00:00,
2013-11-10 06:05:00,39.1,32.2,30.17,East,90,4.0,5.0,76,0.00,,---,0.00,0.00,VWS V14.01,2013-11-10 12:05:00,
2013-11-10 06:10:00,38.5,31.9,30.17,East,90,5.0,6.0,77,0.00,,---,0.00,0.00,VWS V14.01,2013-11-10 12:10:00,
2013-11-10 06:15:00,38.2,31.6,30.17,East,90,5.0,6.0,77,0.00,,---,0.00,0.00,VWS V14.01,2013-11-10 12:15:00,
2013-11-10 06:20:00,38.0,31.8,30.17,East,90,5.0,6.0,78,0.00,,---,0.00,0.00,VWS V14.01,2013-11-10 12:20:00,
2013-11-10 06:25:00,37.9,31.7,30.17,East,90,5.0,7.0,78,0.00,,---,0.00,0.00,VWS V14.01,2013-11-10 12:25:00,
2013-11-10 06:30:00,37.8,31.9,30.17,East,90,5.0,7.0,79,0.00,,---,0.00,0.00,VWS V14.01,2013-11-10 12:30:00,
2013-11-10 06:35:00,37.8,31.9,30.17,East,90,6.0,7.0,79,0.00,,---,0.00,0.00,VWS V14.01,2013-11-10 12:35:00,
2013-11-10 06:40:00,37.9,32.0,30.17,East,90,5.0,8.0,79,0.00,,---,0.00,0.00,VWS V14.01,2013-11-10 12:40:00,
2013-11-10 06:45:00,38.2,32.0,30.17,NNW,338,4.0,7.0,78,0.00,,---,0.00,0.00,VWS V14.01,2013-11-10 12:45:00,
2013-11-10 06:50:00,38.2,32.0,30.17,ESE,112,5.0,6.0,78,0.00,,---,0.00,0.00,VWS V14.01,2013-11-10 12:50:00,
2013-11-10 06:55:00,38.2,32.0,30.17,ESE,112,5.0,6.0,78,0.00,,---,0.00,0.00,VWS V14.01,2013-11-10 12:55:00,
2013-11-10 07:00:00,38.3,32.0,30.18,ESE,112,5.0,6.0,78,0.00,,---,0.00,0.00,VWS V14.01,2013-11-10 13:00:00,
2013-11-10 07:05:00,38.3,32.0,30.18,North,0,5.0,7.0,78,0.00,,---,0.00,0.00,VWS V14.01,2013-11-10 13:05:00,
2013-11-10 07:10:00,38.3,32.0,30.18,SSE,158,5.0,7.0,78,0.00,,---,0.00,0.00,VWS V14.01,2013-11-10 13:10:00,
2013-11-10 07:15:00,38.2,31.6,30.18,SSW,202,6.0,7.0,77,0.00,,---,0.00,0.00,VWS V14.01,2013-11-10 13:15:00,
2013-11-10 07:20:00,38.3,31.7,30.18,East,90,6.0,7.0,77,0.00,,---,0.00,7.00,VWS V14.01,2013-11-10 13:20:00,
2013-11-10 07:25:00,38.5,31.9,30.18,North,0,6.0,7.0,77,0.00,,---,0.00,11.00,VWS V14.01,2013-11-10 13:25:00,
2013-11-10 07:30:00,38.8,32.2,30.18,North,0,6.0,7.0,77,0.00,,---,0.00,11.00,VWS V14.01,2013-11-10 13:30:00,
2013-11-10 07:35:00,38.9,32.0,30.18,North,0,6.0,7.0,76,0.00,,---,0.00,11.00,VWS V14.01,2013-11-10 13:35:00,
2013-11-10 07:40:00,39.2,32.3,30.18,North,0,5.0,7.0,76,0.00,,---,0.00,34.00,VWS V14.01,2013-11-10 13:40:00,
2013-11-10 07:45:00,39.3,32.4,30.18,North,0,5.0,6.0,76,0.00,,---,0.00,48.00,VWS V14.01,2013-11-10 13:45:00,
2013-11-10 07:50:00,39.3,32.4,30.18,North,0,5.0,7.0,76,0.00,,---,0.00,48.00,VWS V14.01,2013-11-10 13:50:00,
2013-11-10 07:55:00,39.5,32.6,30.18,North,0,6.0,7.0,76,0.00,,---,0.00,48.00,VWS V14.01,2013-11-10 13:55:00,
2013-11-10 08:00:00,39.9,33.0,30.18,WSW,248,6.0,7.0,76,0.00,,---,0.00,95.00,VWS V14.01,2013-11-10 14:00:00,
2013-11-10 08:05:00,40.2,33.2,30.18,ESE,112,6.0,7.0,76,0.00,,---,0.00,99.00,VWS V14.01,2013-11-10 14:05:00,
2013-11-10 08:10:00,40.6,33.3,30.18,ESE,112,6.0,7.0,75,0.00,,---,0.00,121.00,VWS V14.01,2013-11-10 14:10:00,
2013-11-10 08:15:00,40.9,33.6,30.19,ESE,112,6.0,7.0,75,0.00,,---,0.00,138.00,VWS V14.01,2013-11-10 14:15:00,
2013-11-10 08:20:00,41.1,33.5,30.19,ESE,112,6.0,8.0,74,0.00,,---,0.00,145.00,VWS V14.01,2013-11-10 14:20:00,
2013-11-10 08:25:00,41.2,33.5,30.19,ESE,112,6.0,10.0,74,0.00,,---,0.00,159.00,VWS V14.01,2013-11-10 14:25:00,
2013-11-10 08:30:00,41.5,33.2,30.19,East,90,8.0,12.0,72,0.00,,---,0.00,174.00,VWS V14.01,2013-11-10 14:30:00,
2013-11-10 08:35:00,41.6,33.3,30.19,East,90,7.0,11.0,72,0.00,,---,0.00,167.00,VWS V14.01,2013-11-10 14:35:00,
2013-11-10 08:40:00,41.5,33.2,30.19,East,90,7.0,11.0,72,0.00,,---,0.00,167.00,VWS V14.01,2013-11-10 14:40:00,
2013-11-10 08:45:00,41.5,33.5,30.19,East,90,6.0,10.0,73,0.00,,---,0.00,145.00,VWS V14.01,2013-11-10 14:45:00,
2013-11-10 08:50:00,41.3,33.3,30.19,East,90,6.0,7.0,73,0.00,,---,0.00,134.00,VWS V14.01,2013-11-10 14:50:00,
2013-11-10 08:55:00,41.1,33.1,30.19,East,90,6.0,8.0,73,0.00,,---,0.00,53.00,VWS V14.01,2013-11-10 14:55:00,
2013-11-10 09:00:00,41.1,33.8,30.20,East,90,6.0,8.0,75,0.00,,---,0.00,55.00,VWS V14.01,2013-11-10 15:00:00,
2013-11-10 09:05:00,40.9,33.6,30.20,East,90,6.0,7.0,75,0.00,,---,0.00,85.00,VWS V14.01,2013-11-10 15:05:00,
2013-11-10 09:10:00,41.2,34.2,30.20,East,90,5.0,7.0,76,0.00,,---,0.00,112.00,VWS V14.01,2013-11-10 15:10:00,
2013-11-10 09:15:00,41.8,34.5,30.20,East,90,6.0,8.0,75,0.00,,---,0.00,185.00,VWS V14.01,2013-11-10 15:15:00,
2013-11-10 09:20:00,42.6,34.9,30.20,East,90,6.0,10.0,74,0.00,,---,0.00,264.00,VWS V14.01,2013-11-10 15:20:00,
2013-11-10 09:25:00,43.8,35.4,30.20,East,90,7.0,11.0,72,0.00,,---,0.00,316.00,VWS V14.01,2013-11-10 15:25:00,
2013-11-10 09:30:00,44.6,35.1,30.19,East,90,9.0,13.0,69,0.00,,---,0.00,359.00,VWS V14.01,2013-11-10 15:30:00,
2013-11-10 09:35:00,45.4,35.5,30.19,ESE,112,10.0,13.0,68,0.00,,---,0.00,345.00,VWS V14.01,2013-11-10 15:35:00,
2013-11-10 09:40:00,46.1,35.8,30.19,ESE,112,9.0,13.0,67,0.00,,---,0.00,381.00,VWS V14.01,2013-11-10 15:40:00,
2013-11-10 09:45:00,46.8,35.7,30.19,ESE,112,9.0,13.0,65,0.00,,---,0.00,317.00,VWS V14.01,2013-11-10 15:45:00,
2013-11-10 09:50:00,47.3,35.8,30.19,ESE,112,11.0,13.0,64,0.00,,---,0.00,401.00,VWS V14.01,2013-11-10 15:50:00,
2013-11-10 09:55:00,47.9,36.3,30.19,West,270,9.0,12.0,64,0.00,,---,0.00,405.00,VWS V14.01,2013-11-10 15:55:00,
2013-11-10 10:00:00,48.5,35.7,30.18,SSE,158,13.0,19.0,61,0.00,,---,0.00,405.00,VWS V14.01,2013-11-10 16:00:00,
2013-11-10 10:05:00,48.8,35.5,30.18,ESE,112,14.0,19.0,60,0.00,,---,0.00,405.00,VWS V14.01,2013-11-10 16:05:00,
2013-11-10 10:10:00,48.8,34.7,30.18,ESE,112,14.0,18.0,58,0.00,,---,0.00,405.00,VWS V14.01,2013-11-10 16:10:00,
2013-11-10 10:15:00,49.6,34.6,30.19,ESE,112,14.0,17.0,56,0.00,,---,0.00,405.00,VWS V14.01,2013-11-10 16:15:00,
2013-11-10 10:20:00,50.4,35.3,30.19,West,270,13.0,18.0,56,0.00,,---,0.00,405.00,VWS V14.01,2013-11-10 16:20:00,
2013-11-10 10:25:00,50.7,35.1,30.19,North,0,13.0,17.0,55,0.00,,---,0.00,405.00,VWS V14.01,2013-11-10 16:25:00,
2013-11-10 10:30:00,51.7,35.1,30.18,North,0,13.0,17.0,53,0.00,,---,0.00,394.00,VWS V14.01,2013-11-10 16:30:00,
2013-11-10 10:35:00,52.3,34.7,30.18,SE,135,15.0,21.0,51,0.00,,---,0.00,371.00,VWS V14.01,2013-11-10 16:35:00,
2013-11-10 10:40:00,52.6,34.5,30.18,North,0,12.0,19.0,50,0.00,,---,0.00,366.00,VWS V14.01,2013-11-10 16:40:00,
2013-11-10 10:45:00,53.1,34.5,30.18,North,0,11.0,14.0,49,0.00,,---,0.00,252.00,VWS V14.01,2013-11-10 16:45:00,
2013-11-10 10:50:00,52.9,33.8,30.18,North,0,11.0,16.0,48,0.00,,---,0.00,295.00,VWS V14.01,2013-11-10 16:50:00,
2013-11-10 10:55:00,52.8,34.2,30.18,North,0,13.0,18.0,49,0.00,,---,0.00,290.00,VWS V14.01,2013-11-10 16:55:00,
2013-11-10 11:00:00,53.1,34.5,30.18,North,0,11.0,13.0,49,0.00,,---,0.00,253.00,VWS V14.01,2013-11-10 17:00:00,
2013-11-10 11:05:00,53.2,34.5,30.18,North,0,12.0,18.0,49,0.00,,---,0.00,249.00,VWS V14.01,2013-11-10 17:05:00,
2013-11-10 11:10:00,53.3,34.1,30.18,North,0,16.0,20.0,48,0.00,,---,0.00,260.00,VWS V14.01,2013-11-10 17:10:00,
2013-11-10 11:15:00,53.6,34.4,30.17,North,0,13.0,17.0,48,0.00,,---,0.00,443.00,VWS V14.01,2013-11-10 17:15:00,
2013-11-10 11:20:00,54.1,34.9,30.17,NNW,338,12.0,18.0,48,0.00,,---,0.00,230.00,VWS V14.01,2013-11-10 17:20:00,
2013-11-10 11:30:00,54.1,34.3,30.16,North,0,14.0,22.0,47,0.00,,---,0.00,191.00,VWS V14.01,2013-11-10 17:30:00,
2013-11-10 11:35:00,53.6,34.4,30.16,North,0,14.0,19.0,48,0.00,,---,0.00,190.00,VWS V14.01,2013-11-10 17:35:00,
2013-11-10 11:40:00,53.3,35.2,30.16,North,0,13.0,17.0,50,0.00,,---,0.00,211.00,VWS V14.01,2013-11-10 17:40:00,
2013-11-10 11:45:00,53.3,35.2,30.15,North,0,11.0,17.0,50,0.00,,---,0.00,284.00,VWS V14.01,2013-11-10 17:45:00,
2013-11-10 11:50:00,53.5,35.3,30.15,North,0,11.0,18.0,50,0.00,,---,0.00,278.00,VWS V14.01,2013-11-10 17:50:00,
2013-11-10 11:55:00,53.6,35.4,30.15,North,0,10.0,13.0,50,0.00,,---,0.00,278.00,VWS V14.01,2013-11-10 17:55:00,
2013-11-10 12:00:00,54.7,36.4,30.14,North,0,10.0,16.0,50,0.00,,---,0.00,526.00,VWS V14.01,2013-11-10 18:00:00,
2013-11-10 12:05:00,55.1,36.8,30.14,North,0,9.0,17.0,50,0.00,,---,0.00,183.00,VWS V14.01,2013-11-10 18:05:00,
2013-11-10 12:10:00,55.4,36.1,30.14,North,0,13.0,20.0,48,0.00,,---,0.00,183.00,VWS V14.01,2013-11-10 18:10:00,
2013-11-10 12:15:00,55.4,36.1,30.13,North,0,12.0,17.0,48,0.00,,---,0.00,169.00,VWS V14.01,2013-11-10 18:15:00,
2013-11-10 12:20:00,55.6,36.8,30.13,North,0,11.0,20.0,49,0.00,,---,0.00,156.00,VWS V14.01,2013-11-10 18:20:00,
2013-11-10 12:25:00,56.0,37.1,30.13,North,0,13.0,19.0,49,0.00,,---,0.00,146.00,VWS V14.01,2013-11-10 18:25:00,
2013-11-10 12:30:00,56.3,36.3,30.12,North,0,10.0,15.0,47,0.00,,---,0.00,146.00,VWS V14.01,2013-11-10 18:30:00,
2013-11-10 12:35:00,57.0,37.0,30.12,North,0,8.0,14.0,47,0.00,,---,0.00,537.00,VWS V14.01,2013-11-10 18:35:00,
2013-11-10 12:40:00,57.2,36.6,30.12,North,0,11.0,21.0,46,0.00,,---,0.00,537.00,VWS V14.01,2013-11-10 18:40:00,
2013-11-10 12:45:00,57.6,37.0,30.11,North,0,9.0,13.0,46,0.00,,---,0.00,598.00,VWS V14.01,2013-11-10 18:45:00,
2013-11-10 12:50:00,58.1,36.9,30.11,North,0,12.0,19.0,45,0.00,,---,0.00,591.00,VWS V14.01,2013-11-10 18:50:00,
2013-11-10 12:55:00,58.4,37.2,30.11,NW,315,9.0,14.0,45,0.00,,---,0.00,591.00,VWS V14.01,2013-11-10 18:55:00,
2013-11-10 13:00:00,58.9,37.6,30.10,North,0,11.0,21.0,45,0.00,,---,0.00,535.00,VWS V14.01,2013-11-10 19:00:00,
2013-11-10 13:05:00,58.9,37.6,30.10,North,0,11.0,18.0,45,0.00,,---,0.00,535.00,VWS V14.01,2013-11-10 19:05:00,
2013-11-10 13:10:00,59.3,37.4,30.10,South,180,11.0,22.0,44,0.00,,---,0.00,107.00,VWS V14.01,2013-11-10 19:10:00,
2013-11-10 13:15:00,59.8,37.9,30.09,South,180,10.0,19.0,44,0.00,,---,0.00,96.00,VWS V14.01,2013-11-10 19:15:00,
2013-11-10 13:20:00,60.1,38.1,30.09,SSE,158,9.0,17.0,44,0.00,,---,0.00,107.00,VWS V14.01,2013-11-10 19:20:00,
2013-11-10 13:25:00,60.5,37.3,30.09,South,180,8.0,17.0,42,0.00,,---,0.00,479.00,VWS V14.01,2013-11-10 19:25:00,
2013-11-10 13:30:00,60.5,37.9,30.08,NNW,338,11.0,19.0,43,0.00,,---,0.00,481.00,VWS V14.01,2013-11-10 19:30:00,
2013-11-10 13:35:00,60.9,38.3,30.08,SW,225,12.0,18.0,43,0.00,,---,0.00,466.00,VWS V14.01,2013-11-10 19:35:00,
2013-11-10 13:40:00,61.2,39.1,30.08,South,180,12.0,18.0,44,0.00,,---,0.00,463.00,VWS V14.01,2013-11-10 19:40:00,
2013-11-10 13:45:00,61.2,38.5,30.08,SSW,202,12.0,19.0,43,0.00,,---,0.00,457.00,VWS V14.01,2013-11-10 19:45:00,
2013-11-10 13:50:00,61.2,38.5,30.08,SSW,202,13.0,17.0,43,0.00,,---,0.00,465.00,VWS V14.01,2013-11-10 19:50:00,
2013-11-10 13:55:00,61.0,38.4,30.08,SSE,158,9.0,16.0,43,0.00,,---,0.00,465.00,VWS V14.01,2013-11-10 19:55:00,
2013-11-10 14:00:00,61.3,38.6,30.08,SSW,202,9.0,17.0,43,0.00,,---,0.00,465.00,VWS V14.01,2013-11-10 20:00:00,
2013-11-10 14:05:00,61.2,38.5,30.08,SSW,202,14.0,20.0,43,0.00,,---,0.00,474.00,VWS V14.01,2013-11-10 20:05:00,
2013-11-10 14:10:00,61.0,38.4,30.08,North,0,14.0,17.0,43,0.00,,---,0.00,450.00,VWS V14.01,2013-11-10 20:10:00,
2013-11-10 14:15:00,61.0,38.4,30.07,South,180,12.0,17.0,43,0.00,,---,0.00,450.00,VWS V14.01,2013-11-10 20:15:00,
2013-11-10 14:20:00,60.9,38.3,30.07,North,0,12.0,16.0,43,0.00,,---,0.00,450.00,VWS V14.01,2013-11-10 20:20:00,
2013-11-10 14:25:00,61.2,38.5,30.07,North,0,12.0,20.0,43,0.00,,---,0.00,413.00,VWS V14.01,2013-11-10 20:25:00,
2013-11-10 14:30:00,61.3,39.2,30.07,North,0,11.0,18.0,44,0.00,,---,0.00,415.00,VWS V14.01,2013-11-10 20:30:00,
2013-11-10 14:35:00,61.3,38.6,30.07,WSW,248,13.0,19.0,43,0.00,,---,0.00,393.00,VWS V14.01,2013-11-10 20:35:00,
2013-11-10 14:40:00,62.0,39.3,30.07,WSW,248,13.0,18.0,43,0.00,,---,0.00,385.00,VWS V14.01,2013-11-10 20:40:00,
2013-11-10 14:45:00,62.3,38.9,30.06,SSW,202,11.0,19.0,42,0.00,,---,0.00,387.00,VWS V14.01,2013-11-10 20:45:00,
2013-11-10 14:50:00,62.1,40.0,30.06,South,180,9.0,18.0,44,0.00,,---,0.00,181.00,VWS V14.01,2013-11-10 20:50:00,
2013-11-10 14:55:00,61.8,39.7,30.06,North,0,11.0,19.0,44,0.00,,---,0.00,268.00,VWS V14.01,2013-11-10 20:55:00,
2013-11-10 15:00:00,62.0,40.4,30.05,SW,225,10.0,18.0,45,0.00,,---,0.00,214.00,VWS V14.01,2013-11-10 21:00:00,
2013-11-10 15:05:00,62.0,40.4,30.05,North,0,16.0,24.0,45,0.00,,---,0.00,220.00,VWS V14.01,2013-11-10 21:05:00,
2013-11-10 15:10:00,62.1,40.0,30.05,North,0,15.0,20.0,44,0.00,,---,0.00,270.00,VWS V14.01,2013-11-10 21:10:00,
2013-11-10 15:15:00,62.1,40.0,30.05,NNW,338,15.0,19.0,44,0.00,,---,0.00,280.00,VWS V14.01,2013-11-10 21:15:00,
2013-11-10 15:20:00,62.0,39.9,30.05,North,0,12.0,14.0,44,0.00,,---,0.00,216.00,VWS V14.01,2013-11-10 21:20:00,
2013-11-10 15:25:00,61.8,40.3,30.05,SSW,202,14.0,18.0,45,0.00,,---,0.00,216.00,VWS V14.01,2013-11-10 21:25:00,
2013-11-10 15:30:00,61.6,40.1,30.05,SSW,202,11.0,16.0,45,0.00,,---,0.00,143.00,VWS V14.01,2013-11-10 21:30:00,
2013-11-10 15:35:00,61.5,40.0,30.05,South,180,8.0,12.0,45,0.00,,---,0.00,143.00,VWS V14.01,2013-11-10 21:35:00,
2013-11-10 15:40:00,61.5,41.1,30.05,SW,225,9.0,14.0,47,0.00,,---,0.00,125.00,VWS V14.01,2013-11-10 21:40:00,
2013-11-10 15:45:00,61.5,41.1,30.04,North,0,12.0,18.0,47,0.00,,---,0.00,109.00,VWS V14.01,2013-11-10 21:45:00,
2013-11-10 15:50:00,61.5,41.7,30.04,SSW,202,10.0,15.0,48,0.00,,---,0.00,106.00,VWS V14.01,2013-11-10 21:50:00,
2013-11-10 15:55:00,61.3,41.5,30.04,SSW,202,11.0,14.0,48,0.00,,---,0.00,91.00,VWS V14.01,2013-11-10 21:55:00,
2013-11-10 16:00:00,61.3,41.5,30.04,SSW,202,10.0,14.0,48,0.00,,---,0.00,73.00,VWS V14.01,2013-11-10 22:00:00,
2013-11-10 16:05:00,61.3,42.0,30.04,SSW,202,9.0,12.0,49,0.00,,---,0.00,63.00,VWS V14.01,2013-11-10 22:05:00,
2013-11-10 16:10:00,61.2,41.4,30.04,SSW,202,11.0,14.0,48,0.00,,---,0.00,48.00,VWS V14.01,2013-11-10 22:10:00,
2013-11-10 16:15:00,61.0,41.2,30.03,NNW,338,10.0,14.0,48,0.00,,---,0.00,50.00,VWS V14.01,2013-11-10 22:15:00,
2013-11-10 16:20:00,61.0,41.7,30.03,SSW,202,11.0,15.0,49,0.00,,---,0.00,69.00,VWS V14.01,2013-11-10 22:20:00,
2013-11-10 16:25:00,61.0,42.2,30.03,SSW,202,12.0,14.0,50,0.00,,---,0.00,70.00,VWS V14.01,2013-11-10 22:25:00,
2013-11-10 16:30:00,60.9,42.2,30.03,SSW,202,12.0,15.0,50,0.00,,---,0.00,57.00,VWS V14.01,2013-11-10 22:30:00,
2013-11-10 16:35:00,60.9,42.2,30.03,SSW,202,11.0,17.0,50,0.00,,---,0.00,55.00,VWS V14.01,2013-11-10 22:35:00,
2013-11-10 16:40:00,60.9,42.2,30.03,North,0,12.0,18.0,50,0.00,,---,0.00,61.00,VWS V14.01,2013-11-10 22:40:00,
2013-11-10 16:45:00,60.9,42.2,30.03,North,0,13.0,18.0,50,0.00,,---,0.00,62.00,VWS V14.01,2013-11-10 22:45:00,
2013-11-10 16:50:00,60.5,42.3,30.03,SSW,202,11.0,16.0,51,0.00,,---,0.00,45.00,VWS V14.01,2013-11-10 22:50:00,
2013-11-10 16:55:00,60.4,42.7,30.03,SSW,202,10.0,13.0,52,0.00,,---,0.00,41.00,VWS V14.01,2013-11-10 22:55:00,
2013-11-10 17:00:00,60.1,42.4,30.03,SSW,202,12.0,16.0,52,0.00,,---,0.00,37.00,VWS V14.01,2013-11-10 23:00:00,
2013-11-10 17:05:00,59.9,42.7,30.03,North,0,10.0,14.0,53,0.00,,---,0.00,30.00,VWS V14.01,2013-11-10 23:05:00,
2013-11-10 17:10:00,59.8,43.1,30.03,SW,225,9.0,12.0,54,0.00,,---,0.00,18.00,VWS V14.01,2013-11-10 23:10:00,
2013-11-10 17:15:00,59.6,43.0,30.04,SSW,202,8.0,12.0,54,0.00,,---,0.00,16.00,VWS V14.01,2013-11-10 23:15:00,
2013-11-10 17:20:00,59.3,43.6,30.04,North,0,8.0,11.0,56,0.00,,---,0.00,7.00,VWS V14.01,2013-11-10 23:20:00,
2013-11-10 17:25:00,59.0,43.8,30.04,North,0,8.0,12.0,57,0.00,,---,0.00,0.00,VWS V14.01,2013-11-10 23:25:00,
2013-11-10 17:30:00,58.7,43.5,30.04,SW,225,8.0,13.0,57,0.00,,---,0.00,0.00,VWS V14.01,2013-11-10 23:30:00,
2013-11-10 17:35:00,58.6,43.9,30.04,WSW,248,9.0,13.0,58,0.00,,---,0.00,0.00,VWS V14.01,2013-11-10 23:35:00,
2013-11-10 17:40:00,58.1,43.9,30.04,SSW,202,9.0,12.0,59,0.00,,---,0.00,0.00,VWS V14.01,2013-11-10 23:40:00,
2013-11-10 17:45:00,57.8,44.0,30.03,SSW,202,7.0,7.0,60,0.00,,---,0.00,0.00,VWS V14.01,2013-11-10 23:45:00,
2013-11-10 17:50:00,57.0,43.3,30.03,North,0,7.0,8.0,60,0.00,,---,0.00,0.00,VWS V14.01,2013-11-10 23:50:00,
2013-11-10 17:55:00,56.5,44.1,30.03,NNW,338,6.0,7.0,63,0.00,,---,0.00,0.00,VWS V14.01,2013-11-10 23:55:00,
2013-11-10 18:00:00,55.9,43.9,30.04,SSW,202,6.0,8.0,64,0.00,,---,0.00,0.00,VWS V14.01,2013-11-11 00:00:00,
2013-11-10 18:05:00,55.6,44.0,30.04,SSW,202,7.0,11.0,65,0.00,,---,0.00,0.00,VWS V14.01,2013-11-11 00:05:00,
2013-11-10 18:10:00,55.6,44.4,30.04,SSW,202,7.0,10.0,66,0.00,,---,0.00,0.00,VWS V14.01,2013-11-11 00:10:00,
2013-11-10 18:15:00,55.6,44.4,30.04,SSW,202,7.0,8.0,66,0.00,,---,0.00,0.00,VWS V14.01,2013-11-11 00:15:00,
2013-11-10 18:20:00,55.4,44.6,30.04,WNW,292,6.0,9.0,67,0.00,,---,0.00,0.00,VWS V14.01,2013-11-11 00:20:00,
2013-11-10 18:25:00,55.0,44.7,30.04,South,180,6.0,7.0,68,0.00,,---,0.00,0.00,VWS V14.01,2013-11-11 00:25:00,
2013-11-10 18:30:00,54.7,44.7,30.04,SSW,202,6.0,7.0,69,0.00,,---,0.00,0.00,VWS V14.01,2013-11-11 00:30:00,
2013-11-10 18:35:00,54.5,44.5,30.04,SSW,202,6.0,7.0,69,0.00,,---,0.00,0.00,VWS V14.01,2013-11-11 00:35:00,
2013-11-10 18:40:00,54.1,44.5,30.04,SSW,202,6.0,8.0,70,0.00,,---,0.00,0.00,VWS V14.01,2013-11-11 00:40:00,
2013-11-10 18:45:00,53.8,44.6,30.05,SSW,202,6.0,8.0,71,0.00,,---,0.00,0.00,VWS V14.01,2013-11-11 00:45:00,
2013-11-10 18:50:00,53.6,44.8,30.05,North,0,6.0,8.0,72,0.00,,---,0.00,0.00,VWS V14.01,2013-11-11 00:50:00,
2013-11-10 18:55:00,53.5,45.1,30.05,SW,225,7.0,9.0,73,0.00,,---,0.00,0.00,VWS V14.01,2013-11-11 00:55:00,
2013-11-10 19:00:00,53.5,45.1,30.05,SW,225,7.0,10.0,73,0.00,,---,0.00,0.00,VWS V14.01,2013-11-11 01:00:00,
2013-11-10 19:05:00,53.3,45.2,30.05,SW,225,7.0,8.0,74,0.00,,---,0.00,0.00,VWS V14.01,2013-11-11 01:05:00,
2013-11-10 19:10:00,53.2,45.5,30.05,North,0,7.0,10.0,75,0.00,,---,0.00,0.00,VWS V14.01,2013-11-11 01:10:00,
2013-11-10 19:15:00,53.2,45.5,30.05,North,0,7.0,9.0,75,0.00,,---,0.00,0.00,VWS V14.01,2013-11-11 01:15:00,
2013-11-10 19:20:00,53.2,45.5,30.05,North,0,7.0,8.0,75,0.00,,---,0.00,0.00,VWS V14.01,2013-11-11 01:20:00,
2013-11-10 19:25:00,53.2,45.5,30.05,NNW,338,8.0,11.0,75,0.00,,---,0.00,0.00,VWS V14.01,2013-11-11 01:25:00,
2013-11-10 19:30:00,53.1,45.4,30.05,West,270,8.0,10.0,75,0.00,,---,0.00,0.00,VWS V14.01,2013-11-11 01:30:00,
2013-11-10 19:35:00,52.9,45.9,30.05,North,0,7.0,11.0,77,0.00,,---,0.00,0.00,VWS V14.01,2013-11-11 01:35:00,
2013-11-10 19:40:00,52.8,45.8,30.05,SSW,202,7.0,10.0,77,0.00,,---,0.00,0.00,VWS V14.01,2013-11-11 01:40:00,
2013-11-10 19:45:00,52.6,46.0,30.05,SSW,202,7.0,10.0,78,0.00,,---,0.00,0.00,VWS V14.01,2013-11-11 01:45:00,
2013-11-10 19:50:00,52.2,45.9,30.05,SSW,202,7.0,9.0,79,0.00,,---,0.00,0.00,VWS V14.01,2013-11-11 01:50:00,
2013-11-10 19:55:00,51.9,45.6,30.05,South,180,8.0,10.0,79,0.00,,---,0.00,0.00,VWS V14.01,2013-11-11 01:55:00,
2013-11-10 20:00:00,51.4,45.5,30.05,SSW,202,8.0,11.0,80,0.00,,---,0.00,0.00,VWS V14.01,2013-11-11 02:00:00,
2013-11-10 20:05:00,51.4,45.8,30.05,SSW,202,7.0,10.0,81,0.00,,---,0.00,0.00,VWS V14.01,2013-11-11 02:05:00,
2013-11-10 20:10:00,51.1,45.8,30.05,SSW,202,7.0,10.0,82,0.00,,---,0.00,0.00,VWS V14.01,2013-11-11 02:10:00,
2013-11-10 20:15:00,51.1,45.8,30.05,North,0,8.0,11.0,82,0.00,,---,0.00,0.00,VWS V14.01,2013-11-11 02:15:00,
2013-11-10 20:20:00,51.3,46.0,30.05,SSW,202,8.0,11.0,82,0.00,,---,0.00,0.00,VWS V14.01,2013-11-11 02:20:00,
2013-11-10 20:25:00,51.4,46.4,30.05,SSW,202,8.0,12.0,83,0.00,,---,0.00,0.00,VWS V14.01,2013-11-11 02:25:00,
2013-11-10 20:30:00,51.7,46.7,30.04,SSW,202,8.0,11.0,83,0.00,,---,0.00,0.00,VWS V14.01,2013-11-11 02:30:00,
2013-11-10 20:35:00,52.0,47.0,30.04,SSW,202,8.0,12.0,83,0.00,,---,0.00,0.00,VWS V14.01,2013-11-11 02:35:00,
2013-11-10 20:40:00,52.3,47.3,30.04,SSW,202,8.0,12.0,83,0.00,,---,0.00,0.00,VWS V14.01,2013-11-11 02:40:00,
2013-11-10 20:45:00,52.5,47.2,30.04,SSW,202,8.0,13.0,82,0.00,,---,0.00,0.00,VWS V14.01,2013-11-11 02:45:00,
2013-11-10 20:50:00,52.6,47.3,30.04,North,0,7.0,10.0,82,0.00,,---,0.00,0.00,VWS V14.01,2013-11-11 02:50:00,
2013-11-10 20:55:00,52.8,47.5,30.04,North,0,9.0,12.0,82,0.00,,---,0.00,0.00,VWS V14.01,2013-11-11 02:55:00,
2013-11-10 21:00:00,52.8,47.5,30.04,North,0,9.0,12.0,82,0.00,,---,0.00,0.00,VWS V14.01,2013-11-11 03:00:00,
2013-11-10 21:05:00,52.8,47.5,30.04,SSW,202,8.0,11.0,82,0.00,,---,0.00,0.00,VWS V14.01,2013-11-11 03:05:00,
2013-11-10 21:10:00,52.9,47.6,30.04,SSW,202,9.0,12.0,82,0.00,,---,0.00,0.00,VWS V14.01,2013-11-11 03:10:00,
2013-11-10 21:15:00,53.2,47.9,30.02,SSW,202,9.0,12.0,82,0.00,,---,0.00,0.00,VWS V14.01,2013-11-11 03:15:00,
2013-11-10 21:20:00,53.5,48.2,30.02,North,0,12.0,14.0,82,0.00,,---,0.00,0.00,VWS V14.01,2013-11-11 03:20:00,
2013-11-10 21:25:00,53.8,48.1,30.02,North,0,12.0,18.0,81,0.00,,---,0.00,0.00,VWS V14.01,2013-11-11 03:25:00,
2013-11-10 21:30:00,54.1,48.4,30.02,SSW,202,11.0,14.0,81,0.00,,---,0.00,0.00,VWS V14.01,2013-11-11 03:30:00,
2013-11-10 21:35:00,54.1,48.4,30.02,North,0,11.0,16.0,81,0.00,,---,0.00,0.00,VWS V14.01,2013-11-11 03:35:00,
2013-11-10 21:40:00,54.2,48.5,30.02,SSW,202,12.0,16.0,81,0.00,,---,0.00,0.00,VWS V14.01,2013-11-11 03:40:00,
2013-11-10 21:45:00,54.2,48.2,30.02,NNW,338,11.0,13.0,80,0.00,,---,0.00,0.00,VWS V14.01,2013-11-11 03:45:00,
2013-11-10 21:50:00,54.1,48.4,30.02,NNW,338,11.0,13.0,81,0.00,,---,0.00,0.00,VWS V14.01,2013-11-11 03:50:00,
2013-11-10 21:55:00,53.9,48.2,30.02,WSW,248,12.0,16.0,81,0.00,,---,0.00,0.00,VWS V14.01,2013-11-11 03:55:00,
2013-11-10 22:00:00,53.8,48.1,30.01,SW,225,12.0,14.0,81,0.00,,---,0.00,0.00,VWS V14.01,2013-11-11 04:00:00,
2013-11-10 22:05:00,53.8,48.1,30.01,SW,225,12.0,16.0,81,0.00,,---,0.00,0.00,VWS V14.01,2013-11-11 04:05:00,
2013-11-10 22:10:00,53.8,48.4,30.01,SW,225,9.0,13.0,82,0.00,,---,0.00,0.00,VWS V14.01,2013-11-11 04:10:00,
2013-11-10 22:15:00,53.8,48.4,30.01,SW,225,12.0,17.0,82,0.00,,---,0.00,0.00,VWS V14.01,2013-11-11 04:15:00,
2013-11-10 22:20:00,53.8,48.4,30.01,SW,225,13.0,19.0,82,0.00,,---,0.00,0.00,VWS V14.01,2013-11-11 04:20:00,
2013-11-10 22:25:00,53.9,48.5,30.01,SW,225,13.0,19.0,82,0.00,,---,0.00,0.00,VWS V14.01,2013-11-11 04:25:00,
2013-11-10 22:30:00,53.9,48.5,30.01,SW,225,13.0,18.0,82,0.00,,---,0.00,0.00,VWS V14.01,2013-11-11 04:30:00,
2013-11-10 22:35:00,54.1,48.7,30.01,SW,225,12.0,17.0,82,0.00,,---,0.00,0.00,VWS V14.01,2013-11-11 04:35:00,
2013-11-10 22:40:00,54.1,48.7,30.01,SW,225,13.0,19.0,82,0.00,,---,0.00,0.00,VWS V14.01,2013-11-11 04:40:00,
2013-11-10 22:45:00,53.9,48.5,30.01,SW,225,14.0,19.0,82,0.00,,---,0.00,0.00,VWS V14.01,2013-11-11 04:45:00,
2013-11-10 22:50:00,54.1,48.7,30.01,SW,225,14.0,18.0,82,0.00,,---,0.00,0.00,VWS V14.01,2013-11-11 04:50:00,
2013-11-10 22:55:00,54.1,48.7,30.01,SW,225,13.0,16.0,82,0.00,,---,0.00,0.00,VWS V14.01,2013-11-11 04:55:00,
2013-11-10 23:00:00,54.1,48.7,30.01,SW,225,13.0,17.0,82,0.00,,---,0.00,0.00,VWS V14.01,2013-11-11 05:00:00,
2013-11-10 23:05:00,54.1,48.7,30.01,SW,225,13.0,18.0,82,0.00,,---,0.00,0.00,VWS V14.01,2013-11-11 05:05:00,
2013-11-10 23:10:00,54.1,48.7,30.01,SW,225,13.0,17.0,82,0.00,,---,0.00,0.00,VWS V14.01,2013-11-11 05:10:00,
2013-11-10 23:15:00,53.9,48.5,30.00,SW,225,14.0,17.0,82,0.00,,---,0.00,0.00,VWS V14.01,2013-11-11 05:15:00,
2013-11-10 23:20:00,53.8,48.4,30.00,SW,225,14.0,19.0,82,0.00,,---,0.00,0.00,VWS V14.01,2013-11-11 05:20:00,
2013-11-10 23:25:00,53.5,48.2,30.00,SW,225,13.0,18.0,82,0.00,,---,0.00,0.00,VWS V14.01,2013-11-11 05:25:00,
2013-11-10 23:30:00,53.5,48.2,30.00,SW,225,11.0,14.0,82,0.00,,---,0.00,0.00,VWS V14.01,2013-11-11 05:30:00,
2013-11-10 23:35:00,53.3,48.3,30.00,SW,225,12.0,18.0,83,0.00,,---,0.00,0.00,VWS V14.01,2013-11-11 05:35:00,
2013-11-10 23:40:00,53.2,48.2,30.00,SW,225,12.0,17.0,83,0.00,,---,0.00,0.00,VWS V14.01,2013-11-11 05:40:00,
2013-11-10 23:45:00,53.1,48.1,29.99,SW,225,11.0,13.0,83,0.00,,---,0.00,0.00,VWS V14.01,2013-11-11 05:45:00,
2013-11-10 23:50:00,52.9,48.2,29.99,SW,225,10.0,13.0,84,0.00,,---,0.00,0.00,VWS V14.01,2013-11-11 05:50:00,
2013-11-10 23:55:00,52.8,48.1,29.99,SW,225,10.0,13.0,84,0.00,,---,0.00,0.00,VWS V14.01,2013-11-11 05:55:00,